Location: Newark
(48.2308°N, 120.8549°W)
Time: 14:56:32
(UTC+00:00)

Transit 2A Rocket - Pass Details

Date: 28 May 2020
Orbit: 584 x 919 km, 66.7° (Epoch: 07 July)

Event Time Altitude Azimuth Distance (km) Brightness Sun altitude
Rises 07:35:06 0° 220° (SW) 3,063 - -20.0°
Reaches altitude 10° 07:37:20 10° 222° (SW) 2,199 - -20.0°
Exits shadow 07:39:29 26° 227° (SW) 1,418 6.0 -20.1°
Maximum altitude 07:42:22 73° 307° (NW) 809 5.1 -20.1°
Drops below altitude 10° 07:47:59 10° 33° (NNE) 2,440 8.4 -20.2°
Sets 07:50:34 0° 35° (NE) 3,426 9.2 -20.2°
